FW5361 Weather Reports


time (UTC)temp
C
wind
direction
speed
KPH
gust
KPH
rain 1hr
cm
rain 24hr
cm
rain mn
cm
humidity
%
barometer
mb
20260508110051 3 0 0.0 0.0 0.00 0.00 0.00 91 1012.0
20260508105544 3 0 0.0 0.0 0.00 0.00 0.00 91 1011.9
20260508105044 3 0 0.0 0.0 0.00 0.00 0.00 91 1012.0
20260508104600 3 0 0.0 0.0 0.00 0.00 0.00 91 1011.9
20260508104042 3 0 0.0 0.0 0.00 0.00 0.00 91 1011.9
20260508103542 3 0 0.0 0.0 0.00 0.00 0.00 91 1011.9
20260508103052 3 0 0.0 0.0 0.00 0.00 0.00 90 1011.8
20260508102539 3 0 0.0 0.0 0.00 0.00 0.00 90 1011.8
20260508102040 3 0 0.0 0.0 0.00 0.00 0.00 90 1011.9
20260508101551 3 0 0.0 0.0 0.00 0.00 0.00 90 1011.8
20260508101044 3 0 0.0 0.0 0.00 0.00 0.00 90 1011.9
20260508100542 3 0 0.0 0.0 0.00 0.00 0.00 89 1011.8
20260508100051 3 0 0.0 0.0 0.00 0.00 0.00 89 1011.8
20260508095543 3 0 0.0 0.0 0.00 0.00 0.00 89 1011.9
20260508095046 3 0 0.0 0.0 0.00 0.00 0.00 88 1011.9
20260508094551 4 0 0.0 0.0 0.00 0.00 0.00 88 1011.9
20260508094042 4 0 0.0 0.0 0.00 0.00 0.00 88 1012.0
20260508093542 4 0 0.0 0.0 0.00 0.00 0.00 88 1012.0
20260508093054 4 0 0.0 0.0 0.00 0.00 0.00 88 1012.0
20260508092540 4 0 0.0 0.0 0.00 0.00 0.00 88 1012.0
20260508092043 5 0 0.0 0.0 0.00 0.00 0.00 88 1012.0
20260508091557 5 0 0.0 0.0 0.00 0.00 0.00 87 1012.1
20260508091042 5 0 0.0 0.0 0.00 0.00 0.00 85 1012.1
20260508090542 5 0 0.0 0.0 0.00 0.00 0.00 84 1012.1
20260508090105 5 0 0.0 0.0 0.00 0.00 0.00 84 1012.0
20260508085541 6 0 0.0 0.0 0.00 0.00 0.00 83 1012.0
20260508085041 6 0 0.0 0.0 0.00 0.00 0.00 84 1011.9
20260508084550 6 0 0.0 3.2 0.00 0.00 0.00 85 1011.8
20260508084044 6 0 0.0 3.2 0.00 0.00 0.00 84 1011.9
20260508083543 6 0 0.0 3.2 0.00 0.00 0.00 85 1011.9
20260508083047 6 0 0.0 3.2 0.00 0.00 0.00 84 1011.9
20260508082542 6 0 0.0 3.2 0.00 0.00 0.00 83 1012.0
20260508082042 6 0 0.0 1.6 0.00 0.00 0.00 82 1012.1
20260508081600 6 0 0.0 1.6 0.00 0.00 0.00 85 1012.1
20260508081043 6 0 0.0 1.6 0.00 0.00 0.00 82 1012.0
20260508080543 6 0 0.0 0.0 0.00 0.00 0.00 82 1012.1
20260508080054 5 0 0.0 0.0 0.00 0.00 0.00 84 1012.1
20260508075542 5 0 0.0 0.0 0.00 0.00 0.00 85 1012.1
20260508075041 5 0 0.0 3.2 0.00 0.00 0.00 86 1012.1
20260508074551 6 0 0.0 3.2 0.00 0.00 0.00 85 1012.2
20260508074046 6 0 0.0 1.6 0.00 0.00 0.00 83 1012.4
20260508073542 5 0 0.0 1.6 0.00 0.00 0.00 87 1012.4
20260508073107 5 0 0.0 1.6 0.00 0.00 0.00 88 1012.4
20260508072541 5 0 0.0 3.2 0.00 0.00 0.00 88 1012.5
20260508072040 5 0 0.0 3.2 0.00 0.00 0.00 88 1012.5
20260508071604 5 0 0.0 4.8 0.00 0.00 0.00 89 1012.5
20260508071042 5 50 0.0 4.8 0.00 0.00 0.00 88 1012.5
20260508070541 5 0 0.0 0.0 0.00 0.00 0.00 89 1012.6
20260508070058 5 0 0.0 0.0 0.00 0.00 0.00 89 1012.5
20260508065546 5 0 0.0 0.0 0.00 0.00 0.00 88 1012.5
20260508065042 5 0 0.0 0.0 0.00 0.00 0.00 88 1012.5
20260508064550 5 0 0.0 0.0 0.00 0.00 0.00 89 1012.4
20260508064045 5 0 0.0 0.0 0.00 0.00 0.00 90 1012.3
20260508063542 5 0 0.0 0.0 0.00 0.00 0.00 90 1012.3
20260508063049 5 0 0.0 0.0 0.00 0.00 0.00 90 1012.1
20260508062541 4 0 0.0 0.0 0.00 0.00 0.00 89 1012.0
20260508062042 4 0 0.0 0.0 0.00 0.00 0.00 89 1012.0
20260508061552 4 0 0.0 0.0 0.00 0.00 0.00 88 1012.0
20260508061042 4 0 0.0 0.0 0.00 0.00 0.00 87 1012.0
20260508060542 5 0 0.0 0.0 0.00 0.00 0.00 88 1012.1
20260508060055 4 0 0.0 0.0 0.00 0.00 0.00 88 1012.2
20260508055542 4 0 0.0 0.0 0.00 0.00 0.00 88 1012.2
20260508055040 3 0 0.0 0.0 0.00 0.00 0.00 90 1012.2
20260508054605 3 0 0.0 0.0 0.00 0.00 0.00 90 1012.2
20260508054044 3 0 0.0 0.0 0.00 0.00 0.00 90 1012.2
20260508053541 3 0 0.0 0.0 0.00 0.00 0.00 90 1012.3
20260508053053 3 0 0.0 0.0 0.00 0.00 0.00 90 1012.3
20260508052541 3 0 0.0 0.0 0.00 0.00 0.00 90 1012.3
20260508052040 3 0 0.0 0.0 0.00 0.00 0.00 89 1012.3
20260508051548 3 0 0.0 0.0 0.00 0.00 0.00 90 1012.3
20260508051042 3 0 0.0 0.0 0.00 0.00 0.00 90 1012.4
20260508050542 3 0 0.0 0.0 0.00 0.00 0.00 89 1012.5
20260508050053 3 0 0.0 0.0 0.00 0.00 0.00 89 1012.5
20260508045540 3 0 0.0 0.0 0.00 0.00 0.00 88 1012.5
20260508045041 3 0 0.0 0.0 0.00 0.00 0.00 87 1012.6
20260508044558 4 0 0.0 0.0 0.00 0.00 0.00 88 1012.5
20260508044046 4 0 0.0 0.0 0.00 0.00 0.00 88 1012.7
20260508043541 4 0 0.0 0.0 0.00 0.00 0.00 89 1012.7
20260508043049 4 0 0.0 0.0 0.00 0.00 0.00 88 1012.6
20260508042541 4 0 0.0 0.0 0.00 0.00 0.00 88 1012.6
20260508042041 4 0 0.0 0.0 0.00 0.00 0.00 88 1012.7
20260508041551 5 0 0.0 0.0 0.00 0.00 0.00 88 1012.5
20260508041042 4 0 0.0 0.0 0.00 0.00 0.00 89 1012.5
20260508040542 4 0 0.0 0.0 0.00 0.00 0.00 89 1012.4
20260508040059 4 0 0.0 0.0 0.00 0.00 0.00 88 1012.4
20260508035542 4 0 0.0 0.0 0.00 0.00 0.00 89 1012.4
20260508035042 4 0 0.0 0.0 0.00 0.00 0.00 88 1012.4
20260508034554 4 0 0.0 0.0 0.00 0.00 0.00 88 1012.4
20260508034042 4 0 0.0 0.0 0.00 0.00 0.00 88 1012.4
20260508033539 4 0 0.0 0.0 0.00 0.00 0.00 87 1012.4
20260508033113 5 0 0.0 0.0 0.00 0.00 0.00 87 1012.3
20260508032540 5 0 0.0 0.0 0.00 0.00 0.00 87 1012.3
20260508032041 4 0 0.0 0.0 0.00 0.00 0.00 87 1012.3
20260508031552 4 0 0.0 0.0 0.00 0.00 0.00 87 1012.4
20260508031046 5 0 0.0 0.0 0.00 0.00 0.00 86 1012.3
20260508030541 5 0 0.0 0.0 0.00 0.00 0.00 86 1012.4
20260508030108 5 0 0.0 0.0 0.00 0.00 0.00 85 1012.5
20260508025542 5 0 0.0 0.0 0.00 0.00 0.00 84 1012.4
20260508025042 5 0 0.0 0.0 0.00 0.00 0.00 83 1012.5
20260508024620 5 0 0.0 0.0 0.00 0.00 0.00 84 1012.5
20260508024046 5 0 0.0 0.0 0.00 0.00 0.00 83 1012.4
20260508023542 5 0 0.0 0.0 0.00 0.00 0.00 83 1012.5
20260508023051 5 0 0.0 0.0 0.00 0.00 0.00 82 1012.5
20260508022541 5 0 0.0 0.0 0.00 0.00 0.00 83 1012.5
20260508022041 5 0 0.0 0.0 0.00 0.00 0.00 81 1012.4
20260508021551 6 0 0.0 0.0 0.00 0.00 0.00 80 1012.4
20260508021041 6 0 0.0 0.0 0.00 0.00 0.00 80 1012.5
20260508020541 6 0 0.0 0.0 0.00 0.00 0.00 79 1012.4
20260508020106 6 0 0.0 0.0 0.00 0.00 0.00 77 1012.3
20260508015541 6 0 0.0 0.0 0.00 0.00 0.00 78 1012.4
20260508015039 6 0 0.0 0.0 0.00 0.00 0.00 75 1012.4
20260508014600 6 0 0.0 0.0 0.00 0.00 0.00 74 1012.2
20260508014043 6 0 0.0 0.0 0.00 0.00 0.00 73 1012.3
20260508013541 7 0 0.0 0.0 0.00 0.00 0.00 72 1012.2
20260508013107 7 0 0.0 0.0 0.00 0.00 0.00 72 1012.1
20260508012541 7 0 0.0 0.0 0.00 0.00 0.00 69 1012.1
20260508012040 7 0 0.0 0.0 0.00 0.00 0.00 68 1012.1
20260508011559 8 0 0.0 0.0 0.00 0.00 0.00 67 1012.0
20260508011045 8 0 0.0 0.0 0.00 0.00 0.00 66 1012.0
20260508010540 8 0 0.0 0.0 0.00 0.00 0.00 64 1011.9
20260508010055 8 0 0.0 0.0 0.00 0.00 0.00 64 1011.8
20260508005541 8 0 0.0 0.0 0.00 0.00 0.00 61 1011.8
20260508005042 9 0 0.0 0.0 0.00 0.00 0.00 59 1011.8
20260508004551 10 0 0.0 1.6 0.00 0.00 0.00 59 1011.8
20260508004042 10 0 0.0 1.6 0.00 0.00 0.00 56 1011.8
20260508003543 11 0 0.0 3.2 0.00 0.00 0.00 55 1011.7
20260508003051 11 0 0.0 3.2 0.00 0.00 0.00 53 1011.7
20260508002542 11 0 0.0 4.8 0.00 0.00 0.00 51 1011.5
20260508002042 11 0 0.0 6.4 0.00 0.00 0.00 49 1011.6
20260508001556 11 113 0.0 14.5 0.00 0.00 0.00 50 1011.6
20260508001042 12 140 0.0 14.5 0.00 0.00 0.00 45 1011.5
20260508000542 12 138 8.0 14.5 0.00 0.00 0.00 44 1011.6
20260508000053 12 154 1.6 9.7 0.00 0.00 0.00 47 1011.6
20260507235542 12 0 0.0 12.9 0.00 0.00 0.00 43 1011.3
20260507235041 12 0 3.2 14.5 0.00 0.00 0.00 43 1011.4
20260507234547 12 146 3.2 14.5 0.00 0.00 0.00 45 1011.3
20260507234044 13 142 4.8 14.5 0.00 0.00 0.00 45 1011.3
20260507233541 13 109 3.2 14.5 0.00 0.00 0.00 41 1011.1
20260507233053 13 143 6.4 14.5 0.00 0.00 0.00 41 1011.2
20260507232542 13 117 3.2 14.5 0.00 0.00 0.00 43 1011.1
20260507232043 13 144 4.8 16.1 0.00 0.00 0.00 44 1011.1
20260507231552 13 152 3.2 16.1 0.00 0.00 0.00 42 1011.1
20260507231040 13 131 4.8 22.5 0.00 0.00 0.00 41 1011.1
20260507230544 13 157 6.4 22.5 0.00 0.00 0.00 43 1011.2
20260507230053 13 154 8.0 22.5 0.00 0.00 0.00 44 1011.2
20260507225544 13 136 6.4 14.5 0.00 0.00 0.00 45 1011.3
20260507225041 13 131 6.4 19.3 0.00 0.00 0.00 42 1011.4
20260507224551 13 149 6.4 22.5 0.00 0.00 0.00 46 1011.3
20260507224044 13 173 11.3 22.5 0.00 0.00 0.00 43 1011.4
20260507223542 13 145 9.7 20.9 0.00 0.00 0.00 44 1011.4
20260507223053 13 171 8.0 22.5 0.00 0.00 0.00 43 1011.4
20260507222542 13 138 9.7 30.6 0.00 0.00 0.00 45 1011.4
20260507222044 13 150 8.0 30.6 0.00 0.00 0.00 43 1011.4
20260507221549 13 161 11.3 24.1 0.00 0.00 0.00 44 1011.3
20260507221040 13 137 8.0 27.4 0.00 0.00 0.00 45 1011.3
20260507220541 13 146 16.1 27.4 0.00 0.00 0.00 44 1011.2
20260507220053 13 165 9.7 33.8 0.00 0.00 0.00 42 1011.1
20260507215542 13 131 16.1 33.8 0.00 0.00 0.00 42 1011.2
20260507215041 13 131 12.9 27.4 0.00 0.00 0.00 42 1011.1
20260507214549 13 136 11.3 25.7 0.00 0.00 0.00 45 1011.1
20260507214040 13 99 8.0 27.4 0.00 0.00 0.00 43 1011.0
20260507213540 13 127 16.1 27.4 0.00 0.00 0.00 41 1011.0
20260507213057 14 97 11.3 29.0 0.00 0.00 0.00 44 1010.9
20260507212542 14 133 11.3 29.0 0.00 0.00 0.00 45 1010.8
20260507212043 14 167 14.5 29.0 0.00 0.00 0.00 45 1010.8
20260507211553 14 155 3.2 29.0 0.00 0.00 0.00 46 1010.6
20260507211042 13 111 11.3 29.0 0.00 0.00 0.00 44 1010.6
20260507210542 13 139 17.7 29.0 0.00 0.00 0.00 45 1010.5
20260507210050 14 142 12.9 29.0 0.00 0.00 0.00 45 1010.4
20260507205540 13 154 11.3 29.0 0.00 0.00 0.00 46 1010.4
20260507205039 13 123 6.4 25.7 0.00 0.00 0.00 49 1010.3
20260507204551 13 132 11.3 25.7 0.00 0.00 0.00 47 1010.3
20260507204041 13 164 12.9 25.7 0.00 0.00 0.00 46 1010.4
20260507203542 13 152 9.7 25.7 0.00 0.00 0.00 45 1010.3
20260507203047 13 168 4.8 20.9 0.00 0.00 0.00 45 1010.4
20260507202540 13 144 8.0 27.4 0.00 0.00 0.00 45 1010.3
20260507202040 14 360 6.4 27.4 0.00 0.00 0.00 46 1010.2
20260507201550 13 138 16.1 27.4 0.00 0.00 0.00 45 1010.3
20260507201041 13 134 11.3 25.7 0.00 0.00 0.00 46 1010.2
20260507200541 13 134 9.7 25.7 0.00 0.00 0.00 47 1010.2
20260507200051 14 119 9.7 27.4 0.00 0.00 0.00 42 1010.3
20260507195539 14 158 9.7 27.4 0.00 0.00 0.00 42 1010.2
20260507195041 13 143 4.8 24.1 0.00 0.00 0.00 42 1010.2
20260507194548 13 153 11.3 27.4 0.00 0.00 0.00 42 1010.4
20260507194041 13 126 14.5 29.0 0.00 0.00 0.00 41 1010.3
20260507193540 14 136 16.1 29.0 0.00 0.00 0.00 42 1010.5
20260507193052 14 151 8.0 27.4 0.00 0.00 0.00 42 1010.3
20260507192539 13 230 9.7 27.4 0.00 0.00 0.00 42 1010.4
20260507192040 13 125 11.3 27.4 0.00 0.00 0.00 40 1010.6
20260507191547 13 150 11.3 29.0 0.00 0.00 0.00 40 1010.6
20260507191039 13 123 11.3 30.6 0.00 0.00 0.00 42 1010.7
20260507190539 13 150 14.5 30.6 0.00 0.00 0.00 42 1010.4
20260507190052 14 139 9.7 29.0 0.00 0.00 0.00 42 1010.4
20260507185538 14 123 9.7 29.0 0.00 0.00 0.00 43 1010.6
20260507185041 13 139 11.3 29.0 0.00 0.00 0.00 43 1010.7
20260507184549 13 161 8.0 32.2 0.00 0.00 0.00 42 1010.6
20260507184041 13 142 12.9 32.2 0.00 0.00 0.00 42 1010.7
20260507183543 13 144 11.3 32.2 0.00 0.00 0.00 41 1010.8
20260507183055 13 159 14.5 32.2 0.00 0.00 0.00 42 1010.7
20260507182540 13 136 11.3 25.7 0.00 0.00 0.00 42 1010.7
20260507182041 13 162 14.5 25.7 0.00 0.00 0.00 42 1010.7
20260507181549 13 107 6.4 20.9 0.00 0.00 0.00 43 1010.8
20260507181039 14 138 8.0 19.3 0.00 0.00 0.00 43 1010.8
20260507180544 14 53 4.8 19.3 0.00 0.00 0.00 44 1010.8
20260507180057 13 172 8.0 24.1 0.00 0.00 0.00 45 1010.8
20260507175539 13 109 12.9 24.1 0.00 0.00 0.00 44 1011.0
20260507175039 13 137 14.5 27.4 0.00 0.00 0.00 44 1011.0
20260507174552 13 154 9.7 27.4 0.00 0.00 0.00 48 1011.0
20260507174041 13 159 11.3 25.7 0.00 0.00 0.00 42 1011.1
20260507173543 13 59 6.4 35.4 0.00 0.00 0.00 42 1011.2
20260507173101 13 127 9.7 35.4 0.00 0.00 0.00 43 1011.3
20260507172543 13 146 14.5 25.7 0.00 0.00 0.00 41 1011.3
20260507172043 13 126 9.7 25.7 0.00 0.00 0.00 41 1011.3
20260507171555 13 125 8.0 25.7 0.00 0.00 0.00 44 1011.4
20260507171042 13 98 11.3 22.5 0.00 0.00 0.00 44 1011.4
20260507170542 13 149 9.7 25.7 0.00 0.00 0.00 46 1011.3
20260507170056 13 154 6.4 25.7 0.00 0.00 0.00 46 1011.4
20260507165541 13 153 8.0 29.0 0.00 0.00 0.00 44 1011.5
20260507165039 13 148 12.9 29.0 0.00 0.00 0.00 42 1011.5
20260507164548 13 115 14.5 27.4 0.00 0.00 0.00 43 1011.4
20260507164041 13 142 4.8 17.7 0.00 0.00 0.00 45 1011.4
20260507163539 13 90 3.2 25.7 0.00 0.00 0.00 43 1011.3
20260507163051 13 132 6.4 30.6 0.00 0.00 0.00 43 1011.5
20260507162541 13 0 8.0 30.6 0.00 0.00 0.00 45 1011.4
20260507162038 13 142 8.0 24.1 0.00 0.00 0.00 42 1011.4
20260507161556 13 165 11.3 22.5 0.00 0.00 0.00 42 1011.5
20260507161040 13 83 6.4 22.5 0.00 0.00 0.00 45 1011.3
20260507160541 13 155 9.7 22.5 0.00 0.00 0.00 47 1011.3
20260507160057 12 109 6.4 19.3 0.00 0.00 0.00 43 1011.4
20260507155538 12 125 6.4 25.7 0.00 0.00 0.00 44 1011.4
20260507155044 12 174 4.8 25.7 0.00 0.00 0.00 46 1011.4
20260507154555 12 130 8.0 25.7 0.00 0.00 0.00 43 1011.5
20260507154040 12 169 12.9 25.7 0.00 0.00 0.00 47 1011.5
20260507153540 12 144 8.0 25.7 0.00 0.00 0.00 45 1011.4
20260507153101 13 134 8.0 24.1 0.00 0.00 0.00 47 1011.4
20260507152539 12 130 9.7 24.1 0.00 0.00 0.00 48 1011.4
20260507152041 12 149 8.0 17.7 0.00 0.00 0.00 46 1011.6
20260507151552 12 153 8.0 17.7 0.00 0.00 0.00 46 1011.6
20260507151040 12 161 6.4 17.7 0.00 0.00 0.00 44 1011.5
20260507150539 12 142 4.8 17.7 0.00 0.00 0.00 51 1011.5
20260507150055 12 130 3.2 17.7 0.00 0.00 0.00 47 1011.6
20260507145541 12 144 3.2 12.9 0.00 0.00 0.00 49 1011.6
20260507145038 12 148 4.8 12.9 0.00 0.00 0.00 48 1011.7
20260507144553 12 0 4.8 12.9 0.00 0.00 0.00 50 1011.7
20260507144039 12 78 1.6 19.3 0.00 0.00 0.00 48 1011.7
20260507143540 12 140 4.8 19.3 0.00 0.00 0.00 48 1011.8
20260507143103 12 123 1.6 17.7 0.00 0.00 0.00 50 1011.9
20260507142542 12 172 1.6 17.7 0.00 0.00 0.00 54 1011.9
20260507142040 12 150 0.0 17.7 0.00 0.00 0.00 53 1011.9
20260507141551 11 63 4.8 22.5 0.00 0.00 0.00 53 1012.0
20260507141041 11 150 9.7 22.5 0.00 0.00 0.00 57 1012.1
20260507140540 11 148 6.4 19.3 0.00 0.00 0.00 52 1012.1
20260507140051 11 104 4.8 19.3 0.00 0.00 0.00 58 1012.2
20260507135544 11 116 4.8 19.3 0.00 0.00 0.00 58 1012.3
20260507135042 11 79 3.2 19.3 0.00 0.00 0.00 61 1012.3
20260507134553 10 141 3.2 11.3 0.00 0.00 0.00 67 1012.4
20260507134040 10 150 3.2 12.9 0.00 0.00 0.00 66 1012.4
20260507133541 10 160 3.2 12.9 0.00 0.00 0.00 67 1012.4
20260507133051 10 148 1.6 14.5 0.00 0.00 0.00 70 1012.4
20260507132538 9 265 4.8 14.5 0.00 0.00 0.00 70 1012.4
20260507132044 9 90 1.6 8.0 0.00 0.00 0.00 69 1012.5
20260507131552 8 132 1.6 8.0 0.00 0.00 0.00 73 1012.5
20260507131042 8 35 0.0 8.0 0.00 0.00 0.00 73 1012.5
20260507130542 8 0 3.2 8.0 0.00 0.00 0.00 72 1012.5
20260507125540 8 115 0.0 14.5 0.00 0.03 0.00 77 1012.5
20260507125040 8 142 4.8 12.9 0.00 0.03 0.00 75 1012.4
20260507124556 7 139 3.2 11.3 0.00 0.03 0.00 77 1012.3
20260507124042 7 124 3.2 11.3 0.00 0.03 0.00 78 1012.3
20260507123540 7 123 1.6 11.3 0.00 0.03 0.00 81 1012.3
20260507123057 7 144 4.8 11.3 0.00 0.03 0.00 81 1012.4
20260507122542 6 0 0.0 3.2 0.00 0.03 0.00 85 1012.3
20260507122041 6 119 0.0 4.8 0.00 0.03 0.00 92 1012.5
20260507121556 6 0 0.0 4.8 0.00 0.03 0.00 92 1012.5
20260507121040 5 0 0.0 0.0 0.00 0.03 0.00 93 1012.4
20260507120540 5 0 0.0 0.0 0.00 0.03 0.00 93 1012.5
20260507120050 5 0 0.0 0.0 0.00 0.03 0.00 93 1012.4
20260507115541 5 0 0.0 0.0 0.00 0.08 0.00 93 1012.4
20260507115040 5 0 0.0 0.0 0.00 0.08 0.00 94 1012.4
20260507114547 4 0 0.0 0.0 0.00 0.08 0.00 94 1012.4
20260507114040 4 0 0.0 0.0 0.00 0.08 0.00 94 1012.2
20260507113544 3 0 0.0 0.0 0.00 0.08 0.00 94 1012.3
20260507113049 3 0 0.0 0.0 0.00 0.08 0.00 94 1012.2
20260507112542 3 0 0.0 0.0 0.00 0.08 0.00 94 1012.2
20260507112045 2 0 0.0 0.0 0.00 0.08 0.00 94 1012.2
20260507111549 2 0 0.0 0.0 0.00 0.08 0.00 93 1012.0
20260507111042 2 0 0.0 0.0 0.00 0.08 0.00 93 1012.0
20260507110540 2 0 0.0 0.0 0.00 0.08 0.00 94 1012.0